Location: Lac de la Montagne noire
(46.1952°N, 74.2701°W)
Time: 15:35:12
(UTC-05:00)

Tiangong 1 - Visible Passes

Search period start: 20 January 2018 00:00
Search period end: 30 January 2018 00:00
Orbit: 262 x 287 km, 42.8° (Epoch: 20 January)

Date Brightness Start Highest point End Pass type
(mag) Time Alt. Az. Time Alt. Az. Time Alt. Az.
20 Jan 2.0 17:58:20 10° WSW 18:00:36 31° S 18:02:01 17° SE visible
21 Jan 2.4 17:57:53 10° WSW 18:00:01 25° SSW 18:01:47 12° SE visible
22 Jan 2.9 17:57:22 10° WSW 17:59:16 19° SSW 18:01:09 10° SSE visible
23 Jan 3.4 17:56:57 10° WSW 17:58:22 14° SSW 17:59:45 10° SSE visible
